Location: Newark
(52.3735°N, 16.9806°E)
Time: 05:04:50
(UTC+00:00)

LilacSat-2 - Pass Details

Date: 30 November 2021
Orbit: 511 x 532 km, 97.5° (Epoch: 16 January)

Event Time Altitude Azimuth Distance (km) Brightness Sun altitude
Rises 04:21:32 0° 19° (NNE) 2,683 ? -19.9°
Reaches altitude 10° 04:23:46 10° 27° (NNE) 1,791 ? -19.5°
Maximum altitude 04:27:24 39° 98° (E) 814 ? -19.0°
Drops below altitude 10° 04:31:02 10° 168° (SSE) 1,782 ? -18.4°
Sets 04:33:14 0° 176° (S) 2,669 ? -18.1°
